COSMOS 2251 DEB

Satellite information

Favourite Embed

Satellite Type and Status

DEBRISIN ORBIT

Key statistics

Satellite COSMOS 2251 DEB at a glance.

Uptime

11709

Days in orbit

Revolutions

≈ 14.4

Per day

Orbit

LEO

Low Earth Orbit

Inclination

74.0

Latest

Satellite identification and parameters

Extended collection of information and parameters for COSMOS 2251 DEB.

Object identification

Identified? True

Debris? True

Object name: COSMOS 2251 DEB

International designator: 1993-036BPS

Object number (NORAD): 37967

Object ID (CCSDS): 37967

Country: COMMONWEALTH OF INDEPENDENT STATES (CIS)

Current information (Y/N): Y

RCS size: SMALL

Orbital parameters

Period: 100.11 minutes

Inclination: 74.0165 deg

SMA: 7141.854 km

Apoapsis: 874.736 km

Periapsis: 652.702 km

RAAN: 74.6885 deg

Eccentricy: 0.0155445

Argument of periapsis: 250.9132 deg

Mean anomaly: 107.5134 deg

Mean motion: 14.3842199 rev/day

Mean motion (dot): 0.0000201 rev/day2

B* drag term: 0.00058119 1/REarth

Two-line elements (TLE)

Creation date: July 5, 2025, 7:06 a.m.

Reference frame: TEME

Reference center: EARTH

Epoch: July 4, 2025, 10:26 p.m. UTC

TLE line 0: 0 COSMOS 2251 DEB

TLE line 1: 1 37967U 93036BPS 25185.93517815 .00002010 00000-0 58119-3 0 9993

TLE line 2: 2 37967 74.0165 74.6885 0155445 250.9132 107.5134 14.38421990792270

Live tracking on map

Real-time ground track for satellite COSMOS 2251 DEB.

In-orbit conjunctions

A list of the most updated potential collisions computed for object COSMOS 2251 DEB.

Target Orbit TCA Probability of collision Miss distance Type
NOAA 16 DEB SSO 2024-11-16 19:18:24 0.0003310788 732.0 (m) DEBRIS
FENGYUN 1C DEB SSO 2024-11-12 08:12:15 0.0002371262 902.0 (m) DEBRIS

Associated space launch

Military communications satellite. Destroyed in a collision with Iridium 33.

COSMOS 2251 DEB was lifted into orbit during the mission ‘Kosmos-3M | Strela-2M 51’, on board a Kosmos-3M space rocket.

The launch took place on June 16, 1993, 4:17 a.m. from 132/1 (132L).

For more information about the launch, click the button.

Launch to space Kosmos-3M | Strela-2M 51
Kosmos-3M | Strela-2M 51

Agency: N/A

Status: Launch Successful

Launch date: June 16, 1993, 4:17 a.m. UTC

Rocket: Kosmos-3M

Launch pad: 132/1 (132L)

Location: Plesetsk Cosmodrome, Russian Federation

...

Latest news about this satellite

There are no fresh news available about this satellite. Check back as we update our databases every day.


Newsletter sign-up

Weekly statistics, charts and insights to help you stay on top of the space industry.